Zurück zum Katalog

KUIPER-00476

AktivKommunikationVLEO
NORAD 68874·PAYLOAD·🇺🇸 United States

Gestartet Apr 28, 2026 von Cape Canaveral Space Force Station

Loading…

Nächste Überflüge (nächste 24 Stunden)

TLE

AktuellSource: CelesTrak SupGP

Epoche: Sep 14, 2026, 20:48 UTC

1 68874C 26095L   26257.86684028 -.01111600  00000+0 -94921-1 0  2573
2 68874  51.8905 174.5633 0011447 254.9528 225.0903 14.98241701    13

Verfolge KUIPER-00476 in Echtzeit mit AllMySat

Download on the App Store